Location: Peebles
(55.6412°N, 3.1714°W)
Time: 11:48:08
(UTC+01:00)

IRIDIUM 33 DEB - Pass Details

Date: 02 July 2022
Orbit: 580 x 634 km, 86.4° (Epoch: 16 August)

Event Time Altitude Azimuth Distance (km) Brightness Sun altitude
Rises 02:53:16 0° 356° (N) 2,817 ? -8.7°
Reaches altitude 10° 02:55:28 10° 359° (N) 1,913 ? -8.6°
Maximum altitude 02:59:39 68° 82° (E) 635 ? -8.3°
Drops below altitude 10° 03:03:49 10° 166° (SSE) 1,910 ? -8.1°
Enters shadow 03:04:55 - 168° (SSE) 2,358 ? -8.0°
